User: anonymous   Login
Location: Caltech
(34.1382°N, 118.1253°W)
Time: 03:33:23
(UTC-07:00)
Language:

CZ-2C R/B - Orbit

View from above orbital plane
View from above orbital plane
View from above satellite
View from above satellite

Ground track
Ground track

The orbit data is extracted from the following two-line orbital elements,

1 28480U 04046B   17175.32749670 +.00000013 +00000-0 +20650-4 0  9996
2 28480 098.1962 271.0584 0141590 203.0178 200.2558 14.25640928655253
Epoch (UTC): 24 June 2017 07:51:35
Eccentricity: 0.0141590
inclination: 98.1962°
perigee height: 704 km
apogee height: 908 km
right ascension of ascending node: 271.0584°
argument of perigee: 203.0178°
revolutions per day: 14.25640928
mean anomaly at epoch: 200.2558°
orbit number at epoch: 65525

The dashed part of the orbit path shows where the satellite is in the earth's shadow,  

DLR